Regional Weather Roundup
Issued by NWS

Home | Current Version | Previous Version | Text Only | Print | Product List | Glossary Off
Versions: 1 2 3 4 5 6 7 8 9 10 11 12 13 14 15 16 17 18 19 20 21 22 23 24 25 26 27 28 29 30 31 32 33 34 35 36 37 38 39 40 41 42 43 44 45 46 47 48 49 50

142
ASUS43 KMKX 270911
RWRWI

WISCONSIN REGIONAL WEATHER ROUNDUP
NATIONAL WEATHER SERVICE MILWAUKEE/SULLIVAN WI
400 AM CDT SAT AUG 27 2016

NOTE: "FAIR" INDICATES FEW OR NO CLOUDS BELOW 12,000 FEET WITH NO
SIGNIFICANT WEATHER AND/OR OBSTRUCTIONS TO VISIBILITY.

WIZ001-002-006>008-014>016-023>028-271000-
NORTHWEST WISCONSIN

CITY           SKY/WX    TMP DP  RH WIND       PRES   REMARKS
SUPERIOR ARPT  CLOUDY    52  52 100 CALM      30.10F FOG
ASHLAND        MOCLDY    53  52  96 CALM      30.13S
HAYWARD        CLOUDY    55  53  93 CALM      30.13S
SIREN          CLOUDY    58  56  94 CALM      30.10F
CUMBERLAND     PTCLDY    55  54  94 E5        30.11F
RICE LAKE      MOCLDY    58  55  90 CALM      30.13S
CHETEK         NOT AVBL
LADYSMITH      CLOUDY    58  55  88 E3        30.14F
EAU CLAIRE     CLOUDY    62  56  80 E5        30.09F
MENOMONIE      CLOUDY    61  58  91 E5        30.09F
NEW RICHMOND   CLOUDY    60  58  95 CALM      30.09F
OSCEOLA        PTCLDY    60  60 100 E5        30.11F
$$

WIZ003>005-009-010-017-018-271000-
NORTH CENTRAL WISCONSIN

CITY           SKY/WX    TMP DP  RH WIND       PRES   REMARKS
MANITOWISH WTR NOT AVBL
ARBOR VITAE    PTCLDY    57  55  92 CALM      30.16S
WOODRUFF       PTCLDY    57  55  92 CALM      30.16S
RHINELANDER    CLOUDY    57  54  89 CALM      30.16F
EAGLE RIVER    CLOUDY    53  53 100 CALM      30.16S
LAND O LAKES   CLOUDY    49  49 100 CALM      30.17F
PHILLIPS       CLOUDY    55  53  96 CALM      30.14F
TOMAHAWK       CLOUDY    54  53  96 CALM      30.15F
MEDFORD        DRIZZLE   56  56 100 SE3       30.13F
MERRILL        LGT RAIN  57  57 100 CALM      30.15S
$$

WIZ029-030-035-036-043>047-271000-
CENTRAL WISCONSIN

CITY           SKY/WX    TMP DP  RH WIND       PRES   REMARKS
WAUSAU         CLOUDY    60  58  92 CALM      30.13S
MOSINEE        DRIZZLE   57  57 100 E3        30.15F
MARSHFIELD     LGT RAIN  60  57  89 E5        30.13F
STEVENS POINT  LGT RAIN  58  58  99 CALM      30.15F
WAUPACA        RAIN      63  62  97 CALM      30.15R
WAUTOMA        NOT AVBL
WISC RAPIDS    LGT RAIN  60  59  96 E5        30.14F
CAMP DOUGLAS   LGT RAIN  61  61 100 E3        30.11F
$$

WIZ011>013-019>022-031-037>040-048>050-271000-
NORTHEAST WISCONSIN

CITY           SKY/WX    TMP DP  RH WIND       PRES   REMARKS
ANTIGO         LGT RAIN  56  55  97 CALM      30.16S
SHAWANO        RAIN      63  60  91 CALM      30.16R
OCONTO         NOT AVBL
STURGEON BAY   CLOUDY    62  61  96 CALM      30.13F
GREEN BAY      CLOUDY    62  62 100 N3        30.13F
MANITOWOC      LGT RAIN  63  60  90 CALM      30.14S
APPLETON       RAIN      63  54  72 N3        30.14R
CLINTONVILLE   RAIN      61  59  94 CALM      30.16R
OSHKOSH        LGT RAIN  64  60  87 CALM      30.12F
$$

WIZ032>034-041-042-053>061-271000-
SOUTHWEST WISCONSIN

CITY           SKY/WX    TMP DP  RH WIND       PRES   REMARKS
LA CROSSE      CLOUDY    63  61  93 SE7       30.08F
SPARTA         CLOUDY    60  60 100 E3        30.11F
VIROQUA        CLOUDY    60  60 100 E3        30.10F
BOSCOBEL       LGT RAIN  63  62  97 VRB5      30.08F
PRAIRIE DU CHI RAIN      61  60  96 E3        30.06F
PLATTEVILLE    CLOUDY    64  64 100 NE12      30.06F
$$

WIZ056-057-062-063-064-067-068-271000-
SOUTH CENTRAL WISCONSIN

CITY           SKY/WX    TMP DP  RH WIND       PRES   REMARKS
REEDSBURG      NOT AVBL
BARABOO/DELLS  CLOUDY    62  60  93 NE6       30.11F
LONE ROCK      LGT RAIN  63  61  93 NE8       30.09F
MINERAL POINT  LGT RAIN  63  63 100 NE7       30.07F
MADISON        LGT RAIN  63  61  93 NE8       30.10S
MIDDLETON      CLOUDY    64  64  99 E7        30.10F
WATERTOWN      DRIZZLE   61  61 100 E5        30.11F
MONROE         CLOUDY    63  61  94 NE7       30.07F THUNDER
JANESVILLE     CLOUDY    63  63 100 E8        30.07F
$$

WIZ051-052-058>065-066-070>072-271000-
SOUTHEAST WISCONSIN

CITY           SKY/WX    TMP DP  RH WIND       PRES   REMARKS
MILWAUKEE      LGT RAIN  67  62  84 N9        30.11R
WAUKESHA       RAIN      61  59  94 NE7       30.13S
MILWAUKEE/TIMM RAIN      63  59  88 W13       30.16R
RACINE         CLOUDY    70  61  73 E8        30.10F
BURLINGTON     DRIZZLE   63  61  94 N3        30.10S
KENOSHA        MOCLDY    68  64  87 E9        30.08F
FOND DU LAC    CLOUDY    65  58  78 SE5       30.13S
SHEBOYGAN      LGT RAIN  62  59  90 N3        30.13R
WEST BEND      HVY RAIN  61  59  94 E6        30.13R
JUNEAU         RAIN      62  60  95 N3        30.13S
$$

LSZ147-162-271000-
LAKE SUPERIOR

STATION/POSITION TIME  TEMP    WIND        PRES    WAVE
                       AIR SEA DIR/SP/G            HT/PER
                 (UTC) (F)     (DEG/KT/KT) (MB)    (FT/S)
W MID LAKE BUOY  0850   67 67  170/ 10/ 12 1019.5F   1
DEVILS ISLAND    0800   64     190/  6/  6 1019.8F
PORT WING        0840   60     150/  4/  5 1019.6F
SAXON HARBOR     0840   58     200/  6/  8 1020.0S
$$

LMZ867-665-643>646-271000-
LAKE MICHIGAN

STATION/POSITION TIME  TEMP    WIND        PRES    WAVE
                       AIR SEA DIR/SP/G            HT/PER
                 (UTC) (F)     (DEG/KT/KT) (MB)    (FT/S)
CHAMBERS ISLAND  0800   64      CALM  /  1 1020.0F
N MID LAKE BUOY  0850   69 71  110/ 10/ 12 1019.7F   1
NORTHPORT PIER   0800   68     120/  6/  8 1020.3S
SISTER BAY       0837   65        CALM       N/A
KEWAUNEE LAKESHO 0800   62        CALM     1019.9F
SHEBOYGAN LAKESH 0900   62      10/  8/  8 1019.4F
PORT WASHINGTON  0900   64     190/  2/  7 1021.3R
ATWATER BUOY     0900   59     360/  8/  8   N/A
MILWAUKEE LAKESH 0810   65      40/  9/ 10   N/A
S MID LAKE BUOY  0850   71 74   90/ 16/ 17 1018.3F   2/ 4
KENOSHA   LAKESH 0900   70     100/ 12/ 15 1018.3F
$$

TC  - TEMPERATURE IN CELSIUS
VSB - VISIBILITY IN STATUTE MILES
WCI - WIND CHILL INDEX
HX  - HEAT INDEX





USA.gov is the U.S. government's official web portal to all federal, state and local government web resources and services.